Torna al catalogo

WEINA 1B

AttivoScienzaLEO
NORAD 43279·PAYLOAD·🇨🇳 China

Lanciato Apr 10, 2018 da Jiuquan Satellite Launch Center

Loading…

Prossimi Passaggi (prossime 24 ore)

TLE

AggiornatoSource: Space-Track

Epoca: Sep 14, 2026, 15:28 UTC

1 43279U 18034E   26257.64470154 -.00000032  00000-0  77634-4 0  9991
2 43279  63.3932 221.7198 0283014   8.0910 352.4540 13.45375977414248

Traccia WEINA 1B in tempo reale con AllMySat

Download on the App Store